Flag for Germany Weather past 2 weeks in Velbert, North Rhine-Westphalia, Germany

Now
51 °F

Drizzle. Overcast.


Feels Like: 51 °F
Forecast: 43 / 50 °F
Wind: 2 mph from South

Location: Essen

Current Time: Apr 26, 2015 at 5:06:55 AM

Latest Report: Apr 26, 2015 at 4:00 AM


Visibility: 5 mi

Pressure: 29.75 "Hg

Humidity: 100%

Dew point: 51 °F

Location of VelbertLocation

Historic Weather in Velbert — Graph

°F

Velbert temperature yesterday

Maximum temperature yesterday: 61 °F (at 12:00 AM)
Minimum temperature yesterday: 50 °F (at 10:00 AM)
Average temperature yesterday: 55 °F

Past Weeks' High & Low Weather Summary

 TemperatureHumidityPressure
High72 °F (Apr 15, 3:00 PM)100% (Apr 26, 3:00 AM)30.48 "Hg (Apr 26, 3:00 AM)
Low38 °F (Apr 19, 8:00 AM)27% (Apr 21, 5:00 PM)29.75 "Hg (Apr 26, 4:00 AM)
Average52 °F64%30.18 "Hg
* Reported Apr 11 4:00 AM — Apr 26 4:00 AM, Velbert, Weather by CustomWeather, © 2015

Note: Actual official high and low records may vary slightly from our data, if they occured in-between our weather recording intervals... More about our weather records

Advertising

Velbert weather history for previous 24 hours

 ConditionsComfort  
Time TempWeatherWind HumidityBarometerVisibility
4:00 AM
Sun, Apr 26
51 °FDrizzle. Overcast.2 mph100%29.75 "Hg5 mi
3:00 AM52 °FDrizzle. Low clouds.3 mph100%29.76 "Hg6 mi
2:00 AM52 °FOvercast.3 mph93%29.76 "Hg9 mi
1:00 AM51 °FClear.2 mph96%29.78 "Hg6 mi
12:00 AM52 °FClear.1 mph94%29.77 "Hg6 mi
11:00 PM
Sat, Apr 25
53 °FPassing clouds.1 mph95%29.77 "Hg6 mi
10:00 PM54 °FOvercast.1 mph94%29.78 "Hg7 mi
9:00 PM55 °FOvercast.2 mph89%29.77 "Hg11 mi
8:00 PM56 °FOvercast.2 mph88%29.75 "Hg11 mi
7:00 PM56 °FOvercast.3 mph83%29.75 "Hg14 mi
6:00 PM56 °FLight freezing rain. Low clouds.2 mph89%29.76 "Hg7 mi
5:00 PM55 °FLight rain. Low clouds.3 mph95%29.76 "Hg2 mi
4:00 PM56 °FLight freezing rain. Low clouds.2 mph91%29.76 "Hg4 mi
3:00 PM56 °FLight rain. Low clouds.3 mph87%29.76 "Hg4 mi
2:00 PM56 °FLight rain. Low clouds.3 mph86%29.77 "Hg4 mi
1:00 PM55 °FLight freezing rain. Low clouds.3 mph86%29.78 "Hg5 mi
12:00 PM54 °FDrizzle. Overcast.3 mph86%29.78 "Hg6 mi
11:00 AM52 °FLight rain. Low clouds.3 mph94%29.79 "Hg4 mi
10:00 AM50 °FLight rain. Low clouds.3 mph96%29.80 "Hg2 mi
9:00 AM51 °FLight rain. Low clouds.3 mph92%29.79 "Hg2 mi
8:00 AM52 °FLight freezing rain. Low clouds.2 mph94%29.79 "Hg2 mi
7:00 AM53 °FOvercast.5 mph82%29.79 "HgN/A
6:00 AM53 °FFog.2 mph83%29.78 "Hg2 mi
5:00 AM54 °FFog.1 mph81%29.78 "Hg3 mi
Weather by CustomWeather, © 2015

See weather overviewHow to use our weather pages